Wind_Speed
40 41 41 41 40 39 38 38 38 37 38 38 39 39 40 41 41 42 43 45 46 47 50 53 55 56 55 54 57 60 61 61 60 59 58 57 54 53 52 50 50 51 50 46 43 43 45 43 42 42 42 42 42 44 45 46 46 47 51 55 55 53 52
41 42 42 42 42 41 40 40 40 40 39 40 40 41 42 43 43 44 45 46 48 49 52 54 56 57 58 56 56 60 62 63 63 63 61 59 57 57 55 55 56 55 55 52 47 45 47 46 45 45 44 43 44 45 46 47 46 46 47 51 54 54 53
42 42 43 43 43 43 43 42 42 42 42 42 42 43 43 44 45 46 46 47 49 51 53 56 58 58 60 59 57 58 62 64 65 65 65 63 61 61 59 58 59 58 57 56 53 50 49 48 48 47 46 45 45 46 47 48 48 47 46 48 51 53 54
43 43 43 44 44 44 44 44 44 43 44 44 44 45 45 46 46 47 48 49 50 51 53 56 59 61 62 62 60 59 60 63 65 67 67 67 66 65 64 62 61 60 59 58 57 54 51 51 51 49 48 47 47 47 48 49 48 47 47 46 47 50 52
45 45 45 45 45 46 46 46 46 46 46 46 46 47 48 48 48 49 49 50 51 52 54 55 58 61 64 65 65 64 62 63 64 66 67 69 69 69 68 65 61 59 59 59 58 55 53 53 53 52 52 50 48 48 48 47 47 47 46 45 45 47 49
46 47 47 46 46 46 47 47 47 48 48 48 48 49 50 51 51 51 51 52 52 53 54 56 57 60 62 65 67 67 67 66 66 66 66 67 68 69 69 66 61 56 56 58 59 57 54 54 54 54 55 53 49 49 48 45 45 46 45 45 45 46 46
47 48 48 48 48 48 48 48 49 49 50 50 51 51 52 53 53 54 54 54 55 55 55 56 57 59 61 63 65 67 68 69 69 69 68 68 68 68 69 67 63 57 55 56 59 58 56 55 55 55 57 56 52 51 50 46 45 45 46 46 45 46 46
48 49 49 50 49 49 49 49 50 51 51 52 53 54 54 55 55 56 56 57 57 57 58 58 58 59 61 62 63 65 66 68 68 69 69 70 69 69 68 67 65 62 58 56 58 60 59 57 57 57 58 58 55 53 52 49 47 46 48 48 46 45 46
51 51 51 52 51 51 51 51 52 52 53 54 55 55 56 57 57 58 58 58 59 59 60 61 61 62 62 63 64 65 66 67 68 68 68 69 69 70 69 68 66 64 63 59 58 60 62 61 61 60 59 59 58 56 55 53 50 50 51 50 47 46 46
54 53 54 54 54 53 53 54 54 55 55 56 56 57 57 58 59 60 60 60 60 61 62 63 63 64 65 65 66 66 66 67 68 68 69 68 69 69 69 70 68 65 64 63 61 61 62 64 64 64 63 61 61 59 58 56 54 54 54 52 50 49 49
57 57 57 57 56 56 56 56 57 57 58 58 58 59 59 59 59 60 61 62 62 63 64 65 65 66 67 68 68 68 68 68 68 68 69 69 69 69 69 70 69 67 65 64 64 63 63 64 65 66 66 65 63 62 61 59 58 58 56 54 54 53 52
60 60 60 60 60 59 59 60 60 60 61 61 61 61 61 60 60 60 61 62 63 64 66 67 68 68 69 69 70 70 70 70 70 70 69 69 70 69 69 70 70 70 67 65 66 66 65 66 66 67 67 67 66 65 65 63 61 61 60 58 58 56 54
63 64 64 63 63 62 62 63 63 64 64 63 63 63 62 62 62 62 62 62 63 64 66 67 69 70 71 71 71 71 71 72 72 72 71 71 71 70 71 71 71 71 70 68 66 67 67 67 68 69 69 69 69 68 68 66 63 64 65 62 61 60 58
67 67 67 67 66 66 66 66 66 67 67 67 66 66 65 64 64 64 64 64 64 65 66 67 68 70 72 72 72 72 72 73 73 74 73 73 73 72 72 72 73 73 72 71 69 68 69 69 69 70 71 71 71 70 71 70 66 66 68 67 66 64 61
71 71 70 70 69 69 69 69 69 69 69 70 70 69 68 68 67 66 66 66 66 66 67 67 68 70 71 72 73 74 74 74 75 75 75 75 75 74 74 74 74 74 73 73 72 71 71 71 70 70 72 73 73 73 73 73 71 70 71 71 70 67 65
73 73 73 72 72 71 71 72 72 72 72 72 72 72 71 71 70 70 69 69 68 68 68 69 69 70 71 72 73 74 74 75 76 76 76 77 76 76 76 76 76 76 75 74 75 74 73 73 73 72 72 73 74 75 76 76 75 74 75 75 73 71 69
75 75 75 74 74 74 74 74 74 74 74 74 74 74 74 74 73 73 72 72 72 72 71 71 71 71 72 72 73 74 74 75 75 76 77 77 77 77 77 77 78 77 76 76 76 76 76 75 75 74 74 74 75 76 78 78 78 77 77 77 76 75 73
76 77 77 76 76 76 76 76 76 76 76 76 76 76 76 75 75 75 75 75 75 74 74 74 74 73 73 74 74 74 75 75 75 76 76 77 77 77 77 78 79 79 78 78 78 78 78 77 77 76 76 76 76 76 78 79 79 79 79 78 78 77 76
78 78 78 78 78 78 78 77 77 76 77 77 77 77 77 77 77 77 77 77 77 77 76 76 76 76 76 76 75 76 76 76 76 76 77 77 77 76 76 77 78 79 79 79 80 80 80 79 79 78 78 78 78 77 77 78 80 81 81 80 80 79 78
81 81 81 81 81 81 80 79 78 78 77 78 78 78 78 78 78 78 78 78 78 78 78 78 78 78 78 78 78 77 77 78 78 78 78 78 78 77 77 76 77 78 78 79 80 82 82 81 81 80 80 81 81 79 78 79 79 80 81 82 82 81 80
85 85 85 85 84 83 83 82 81 80 80 79 79 79 79 79 79 79 79 79 79 79 79 79 79 79 80 80 79 79 79 79 80 80 80 80 80 79 79 78 78 78 78 78 79 80 82 83 83 82 82 82 83 82 81 80 79 79 80 82 83 83 83
89 89 88 88 88 87 86 85 84 83 83 82 81 80 80 80 80 80 81 81 80 80 79 79 80 80 80 81 80 81 81 81 82 82 83 83 83 83 82 81 80 80 80 79 79 79 81 82 83 84 84 84 84 84 84 82 81 80 80 80 82 83 84
93 94 92 91 91 91 90 89 88 88 87 85 84 83 83 82 82 83 83 82 82 81 81 81 81 81 81 81 81 81 82 83 83 84 84 85 85 86 85 85 84 83 83 82 81 81 81 82 82 83 84 85 85 84 85 85 84 82 81 80 81 82 83
96 96 95 93 93 93 94 93 92 91 91 90 88 87 86 86 86 86 86 85 84 84 83 84 84 83 83 82 82 82 82 83 84 85 85 86 87 87 87 87 87 87 86 85 84 84 83 83 83 83 84 85 85 85 85 85 85 85 84 82 81 82 82
97 97 95 95 94 94 95 96 94 93 94 93 93 92 91 91 90 90 89 88 88 87 87 87 87 86 86 85 84 84 84 84 84 85 86 87 87 88 89 89 89 88 88 88 87 86 85 85 84 84 84 84 85 85 84 85 85 86 85 84 83 82 82
95 95 95 96 97 96 95 96 95 94 93 94 94 95 95 95 95 94 93 92 92 92 92 91 91 90 90 89 88 87 86 86 86 86 87 87 87 88 89 89 89 90 90 90 90 89 88 87 86 85 84 84 85 85 85 84 84 85 86 85 84 84 84
90 92 93 95 97 98 97 96 96 94 93 93 93 94 95 96 97 97 97 96 96 95 95 94 94 94 94 93 92 91 90 89 88 88 88 88 88 88 89 89 89 90 91 91 91 90 89 88 88 86 85 84 84 85 85 85 84 85 85 86 85 84 86
85 88 91 93 95 97 96 94 93 92 90 90 90 92 93 94 95 97 98 99 98 98 98 97 97 97 96 96 95 94 93 92 92 91 91 90 90 90 90 90 90 90 91 92 92 92 91 90 89 88 86 85 84 85 85 85 86 86 85 85 84 84 86
85 88 91 93 95 95 94 93 92 90 88 85 84 85 87 89 91 94 96 98 99 99 100 100 99 99 99 98 97 96 96 95 94 94 94 93 93 92 92 92 91 91 91 91 92 92 92 91 90 89 88 87 86 85 84 85 86 87 86 85 84 84 86
89 91 91 94 95 94 94 93 93 92 88 81 77 77 79 82 85 89 92 95 95 96 98 99 99 100 99 99 98 98 98 97 96 95 95 95 95 95 95 94 93 93 92 92 93 93 93 92 90 89 88 88 87 85 85 86 87 87 87 86 86 85 85
89 89 90 92 93 94 94 94 94 93 87 79 74 73 74 76 79 84 87 88 88 90 92 94 95 95 96 96 96 97 97 96 95 95 95 95 95 95 95 96 95 95 94 94 94 94 94 92 91 89 89 88 87 86 86 88 88 87 87 87 87 86 85
87 87 87 89 91 93 94 95 94 91 85 78 74 72 71 72 74 77 79 79 80 82 84 85 87 87 89 90 91 91 91 90 90 91 92 93 94 94 94 95 95 96 95 96 96 96 95 94 91 90 89 88 87 87 88 90 89 88 87 86 85 85 85
84 85 86 87 90 92 93 93 90 87 83 78 75 71 69 68 69 70 70 71 73 76 77 77 78 80 81 83 83 83 83 83 84 85 87 88 89 91 92 93 94 95 95 95 95 95 95 94 93 92 91 90 88 89 91 91 90 88 87 85 84 84 85
81 81 83 85 87 88 88 87 85 83 80 76 72 68 66 65 64 64 64 65 68 70 70 71 72 74 76 76 76 75 75 76 77 78 79 81 83 85 88 90 91 92 93 92 92 92 93 94 94 94 93 92 92 92 93 92 90 88 86 84 83 82 83
78 77 78 79 81 82 83 82 81 79 76 71 67 65 63 60 57 57 59 61 62 63 65 67 68 70 71 71 71 70 69 69 69 70 71 74 77 80 82 85 86 88 89 89 90 91 92 93 94 94 93 94 94 94 94 93 91 90 87 84 82 81 82
75 73 72 73 76 78 79 79 77 75 71 67 64 61 57 52 50 52 54 56 58 60 62 63 64 65 66 66 66 65 63 63 63 64 65 67 70 73 76 79 81 83 84 85 86 88 89 90 91 92 93 94 94 94 93 93 92 91 89 86 83 81 82
74 71 70 71 73 75 76 75 73 70 67 63 60 55 49 46 46 49 50 52 55 58 59 59 59 60 60 60 61 60 58 58 58 59 59 61 63 66 69 72 74 76 78 79 80 82 83 85 87 89 91 93 93 93 93 92 92 91 89 86 84 83 84
Wind_Direction
247 247 247 248 248 246 243 242 242 241 238 236 235 234 233 233 232 230 230 229 230 228 224 224 224 223 221 220 221 223 225 226 227 230 234 237 238 239 242 247 252 255 254 251 250 249 249 250 252 253 252 251 249 248 249 247 245 243 240 239 238 238 237
246 246 246 246 246 246 244 241 240 240 239 238 236 235 234 233 233 232 231 230 230 230 227 225 226 226 225 224 222 222 224 226 228 231 235 237 239 241 243 246 249 253 254 253 250 248 249 250 251 253 254 252 249 249 250 250 246 243 241 240 240 239 239
246 246 245 245 245 245 245 243 240 239 239 239 238 237 236 234 234 233 233 232 231 231 230 228 228 229 229 228 227 225 224 225 227 230 233 236 239 242 244 246 248 251 253 253 252 250 249 250 251 251 253 252 249 249 250 250 248 245 242 239 239 240 240
246 246 245 244 244 244 244 244 242 240 238 238 238 238 238 237 236 235 234 234 233 232 232 231 230 231 232 232 233 232 230 229 230 231 232 235 238 240 243 245 247 250 252 252 252 251 249 249 249 248 249 250 250 249 249 250 250 248 245 242 239 239 240
248 247 246 244 244 244 244 243 243 242 241 239 238 238 238 239 238 238 237 236 235 234 234 233 233 233 234 235 236 237 237 236 235 235 236 236 237 239 242 244 246 247 249 250 251 251 249 248 247 245 246 248 250 250 251 252 251 250 248 245 242 240 240
249 249 248 246 245 244 243 243 243 243 242 241 240 239 238 238 238 239 239 239 238 237 236 235 235 235 236 237 238 239 240 241 240 240 241 240 240 240 241 244 246 244 244 246 248 248 247 246 245 243 243 245 248 249 250 250 251 249 248 246 244 242 241
249 249 249 248 247 245 244 243 243 243 242 242 242 241 240 239 239 239 239 239 240 240 239 238 238 238 238 238 239 240 241 243 244 244 244 244 244 243 244 246 247 246 243 242 244 246 245 244 244 243 243 242 244 246 247 247 247 247 247 245 243 241 241
249 249 249 249 248 247 246 245 244 244 243 243 243 243 242 242 242 241 240 239 239 240 241 241 241 240 240 240 240 241 242 243 244 245 246 246 246 246 246 247 249 248 245 241 240 242 243 243 243 244 244 242 241 243 245 245 244 245 245 244 242 240 240
248 248 248 249 248 248 248 247 246 246 245 245 244 244 244 243 243 243 243 241 240 240 240 241 242 242 242 242 241 242 242 243 244 245 246 247 247 247 247 248 249 249 247 243 239 239 241 242 242 244 244 243 240 240 242 243 243 244 244 244 243 242 241
250 249 249 249 249 249 248 248 248 248 247 247 247 246 245 245 245 245 245 244 243 243 242 242 242 242 243 244 244 243 243 243 244 245 246 247 247 247 248 248 249 248 247 245 242 239 239 240 242 243 243 243 241 239 239 240 241 242 244 245 244 243 244
252 252 251 251 251 250 250 250 249 249 248 248 249 249 248 247 247 246 246 246 246 245 245 244 244 243 243 244 244 245 245 245 245 245 246 247 247 247 248 248 249 249 247 246 244 241 239 239 240 241 242 243 242 240 239 240 240 241 242 244 244 243 243
252 252 252 252 252 252 252 252 252 251 250 250 250 250 250 250 249 249 248 248 247 247 246 246 246 245 245 245 245 246 246 247 247 247 247 247 247 248 248 248 249 249 249 247 245 243 241 239 239 239 240 241 242 241 239 239 240 241 241 241 243 243 242
252 252 252 253 253 254 253 253 253 252 252 251 251 251 251 251 251 251 250 250 249 248 248 247 247 247 247 247 247 247 247 248 248 248 248 248 248 248 248 249 249 249 250 248 247 245 243 241 239 239 239 239 240 240 240 239 238 241 242 240 240 242 242
253 253 253 253 253 254 254 253 253 252 252 252 252 252 252 252 253 253 252 251 251 250 249 249 248 248 248 248 248 248 248 248 249 249 249 249 249 248 248 249 249 249 249 249 248 246 244 243 241 239 239 239 239 239 239 239 238 240 243 242 240 241 241
254 254 254 253 254 254 254 254 253 252 252 252 253 253 253 254 254 254 254 254 253 252 251 251 250 249 249 249 249 249 248 249 249 249 250 250 250 249 249 249 249 249 249 249 249 248 246 245 243 241 240 240 240 239 239 239 239 240 243 244 243 241 240
255 255 254 254 254 254 254 254 254 253 253 253 253 253 254 254 255 255 255 255 255 254 253 253 252 251 250 250 249 249 249 248 249 249 250 250 250 250 250 250 250 250 249 249 250 249 248 246 245 244 242 241 240 240 240 239 239 240 242 243 244 243 242
255 255 255 254 254 254 254 254 254 254 254 253 254 254 254 255 255 255 256 255 255 255 254 254 253 253 252 251 250 250 249 249 249 249 249 249 250 250 250 251 251 251 250 249 249 250 249 248 247 245 245 244 242 241 241 241 240 240 241 243 244 244 244
256 256 255 255 255 254 254 253 253 254 255 255 255 255 255 255 255 256 256 256 255 255 255 254 254 253 253 252 252 251 251 250 250 249 249 249 249 250 250 250 251 251 251 251 250 249 249 250 249 247 246 245 244 243 243 242 241 241 241 242 244 244 245
255 255 255 255 255 254 254 253 253 253 254 254 255 255 255 255 256 256 256 256 256 255 255 254 254 253 253 252 252 252 252 252 251 251 251 250 250 250 250 250 250 251 251 251 251 251 250 249 250 250 249 248 246 245 244 244 243 242 241 242 243 244 244
255 255 255 254 254 254 254 254 254 254 254 254 254 254 255 255 255 256 256 256 256 255 255 255 255 254 253 252 252 252 252 252 252 252 252 252 251 251 251 250 251 251 251 250 251 251 251 250 249 249 250 250 249 248 246 245 244 243 242 242 242 243 244
254 254 254 255 255 255 255 255 254 254 254 254 253 253 254 254 255 255 255 256 256 256 256 256 255 255 254 253 253 252 252 252 252 252 252 253 252 252 252 252 251 251 251 250 250 250 251 251 250 249 249 249 250 251 249 247 246 245 244 243 242 242 242
252 252 252 254 255 255 256 256 255 255 254 254 254 254 254 254 254 254 255 255 255 256 256 256 256 255 255 255 254 253 252 252 251 251 252 252 252 252 252 252 252 252 252 251 251 250 250 250 250 250 249 249 249 250 251 251 249 247 246 244 243 242 241
252 251 251 252 253 255 255 256 256 256 256 256 255 255 255 255 255 255 255 255 255 255 256 256 256 256 255 255 255 254 253 253 252 251 251 251 252 252 252 252 252 252 252 252 251 251 250 250 250 250 250 250 249 248 249 250 251 250 248 247 245 244 242
254 254 253 252 253 254 254 254 255 256 257 257 257 257 257 256 256 256 256 256 256 256 256 256 256 256 256 256 255 255 255 254 253 252 252 251 251 251 252 252 252 252 252 252 252 251 251 250 250 249 250 250 249 248 248 249 250 250 250 249 248 246 245
256 256 256 255 254 254 253 253 254 255 256 257 258 258 258 258 258 258 257 257 257 257 257 256 256 256 256 256 256 255 255 254 254 254 253 252 252 251 251 251 251 252 252 252 252 252 251 251 250 249 249 250 250 249 248 248 248 249 249 249 249 249 248
256 257 257 257 256 255 254 253 254 255 255 256 257 258 258 258 258 259 259 259 258 258 258 258 257 257 257 257 256 256 255 255 254 254 254 254 253 253 252 252 252 252 252 252 252 251 251 251 251 250 250 249 250 250 249 248 248 248 249 248 248 248 249
257 258 259 258 258 258 256 255 255 255 255 255 256 257 257 258 258 259 259 260 260 259 259 259 259 258 258 258 257 256 256 255 255 255 254 254 254 254 253 253 252 252 252 252 252 252 251 251 251 251 250 250 250 250 250 249 248 247 248 248 248 247 248
255 256 258 258 259 260 260 259 258 257 255 255 255 255 256 257 258 258 259 259 260 261 261 260 260 260 259 259 258 257 257 256 256 255 255 254 254 254 254 253 253 252 252 252 252 252 252 251 251 250 250 250 250 250 250 249 248 247 247 247 247 247 247
248 250 253 256 258 260 262 263 263 261 259 256 254 254 256 257 258 259 259 260 260 261 261 262 261 261 261 260 260 259 258 257 256 255 255 255 254 254 253 253 253 253 252 252 252 252 252 251 251 250 250 250 250 249 249 249 249 248 247 246 246 246 247
245 247 249 253 257 259 261 263 264 264 264 262 259 258 258 258 259 260 261 261 261 261 262 262 262 262 262 261 261 260 259 258 257 256 255 254 254 254 253 253 253 253 253 253 252 252 252 251 251 251 250 250 250 249 249 249 248 248 247 247 246 245 246
247 248 249 251 255 257 260 261 263 265 267 267 267 265 264 263 263 263 262 262 262 262 262 262 262 262 262 262 261 260 259 258 257 257 256 255 254 253 253 253 253 252 252 252 252 252 252 252 251 251 250 250 250 250 249 249 248 247 247 246 246 245 245
247 248 249 251 253 255 258 260 262 265 268 271 271 270 269 267 265 264 263 263 263 263 263 263 263 262 262 261 260 260 259 259 258 257 256 255 255 254 253 252 252 252 252 251 252 252 252 252 252 251 251 250 250 249 249 249 248 247 246 246 246 246 245
246 246 247 249 251 253 256 259 262 266 269 270 271 271 270 268 266 265 265 265 264 264 263 263 263 263 262 262 261 261 260 259 258 257 256 256 255 254 253 252 251 251 251 251 251 251 252 253 252 252 251 250 249 249 249 248 248 248 247 246 245 245 245
247 248 249 250 252 255 258 261 263 266 268 269 270 270 270 269 268 268 267 266 265 264 264 263 263 263 263 263 262 262 261 260 258 257 256 256 255 254 253 252 251 251 250 250 251 251 251 251 251 251 251 250 249 248 248 248 248 248 247 246 245 245 245
249 250 252 254 256 258 260 262 263 265 267 268 270 270 269 269 269 269 267 265 264 264 263 262 262 262 263 263 263 262 261 260 259 257 256 255 254 253 252 252 252 251 251 250 250 250 250 250 250 250 250 250 249 249 248 248 248 248 247 246 245 245 245
251 250 251 252 254 256 259 261 263 265 267 269 270 270 270 270 269 268 266 266 264 263 262 262 262 262 263 264 264 264 263 262 260 258 256 255 254 253 253 252 252 252 251 251 250 250 250 250 250 250 250 249 249 249 248 248 248 248 247 246 245 245 245
252 252 251 251 253 255 258 261 264 266 269 270 270 270 271 271 269 268 267 267 266 264 263 263 263 263 264 265 265 265 264 263 261 259 257 256 256 255 254 253 253 252 252 251 251 250 250 250 249 249 249 249 248 248 248 248 247 247 247 246 246 245 244
Height
10632 10633 10633 10634 10636 10638 10640 10642 10644 10646 10648 10650 10652 10653 10655 10657 10659 10661 10663 10664 10666 10668 10670 10672 10674 10677 10679 10680 10682 10683 10686 10688 10689 10689 10689 10691 10694 10695 10697 10700 10701 10702 10704 10707 10709 10711 10712 10712 10711 10711 10711 10712 10713 10714 10715 10716 10717 10720 10722 10724 10726 10728 10730
10627 10628 10629 10630 10631 10633 10635 10637 10639 10641 10643 10645 10647 10648 10650 10652 10653 10655 10657 10659 10661 10663 10665 10667 10669 10671 10673 10674 10676 10678 10680 10683 10684 10685 10685 10687 10688 10689 10693 10696 10697 10698 10699 10702 10705 10706 10707 10708 10708 10707 10707 10709 10710 10710 10711 10711 10713 10715 10717 10719 10720 10722 10725
10623 10623 10624 10625 10626 10627 10629 10631 10633 10636 10638 10640 10641 10643 10644 10646 10648 10650 10652 10654 10655 10657 10660 10662 10663 10665 10666 10668 10669 10671 10674 10676 10678 10680 10680 10682 10683 10684 10687 10690 10692 10693 10694 10697 10699 10701 10703 10704 10704 10704 10704 10705 10706 10706 10707 10708 10709 10710 10712 10713 10715 10717 10719
10618 10618 10619 10620 10621 10622 10624 10625 10628 10630 10632 10634 10636 10637 10639 10640 10642 10644 10646 10647 10649 10651 10653 10655 10657 10658 10660 10662 10663 10665 10667 10669 10671 10673 10675 10676 10679 10680 10681 10684 10686 10687 10689 10691 10692 10694 10698 10700 10700 10700 10701 10701 10702 10703 10704 10705 10706 10707 10707 10708 10710 10711 10713
10612 10613 10614 10615 10616 10618 10619 10620 10622 10624 10626 10627 10629 10631 10632 10634 10635 10637 10639 10641 10643 10645 10647 10649 10651 10652 10654 10655 10657 10659 10661 10663 10665 10666 10667 10670 10673 10675 10676 10678 10680 10682 10683 10684 10685 10689 10692 10694 10695 10697 10697 10697 10699 10699 10700 10702 10703 10704 10704 10705 10706 10706 10708
10606 10607 10608 10610 10611 10613 10614 10615 10616 10617 10619 10620 10622 10624 10625 10627 10629 10630 10632 10634 10636 10638 10640 10642 10644 10645 10647 10649 10651 10652 10654 10656 10658 10659 10660 10663 10665 10668 10669 10671 10673 10675 10676 10677 10679 10682 10685 10687 10690 10691 10691 10694 10696 10696 10696 10699 10700 10701 10701 10702 10702 10702 10703
10601 10601 10602 10604 10606 10607 10608 10610 10610 10611 10612 10614 10615 10616 10618 10620 10621 10623 10625 10627 10629 10631 10633 10635 10636 10638 10640 10642 10644 10645 10647 10649 10650 10652 10654 10656 10658 10660 10662 10664 10666 10668 10670 10671 10673 10676 10679 10681 10684 10685 10685 10689 10693 10692 10693 10695 10697 10698 10698 10697 10698 10699 10699
10594 10595 10596 10597 10599 10601 10602 10604 10605 10605 10606 10607 10608 10609 10611 10612 10614 10616 10618 10620 10622 10624 10626 10627 10629 10630 10632 10634 10636 10638 10640 10641 10643 10644 10646 10648 10651 10653 10656 10658 10660 10661 10663 10665 10667 10669 10672 10675 10677 10678 10680 10683 10687 10688 10688 10690 10693 10694 10693 10692 10694 10695 10695
10588 10589 10589 10590 10592 10594 10596 10597 10598 10599 10600 10600 10601 10602 10604 10605 10606 10608 10610 10613 10615 10617 10618 10619 10621 10622 10623 10625 10627 10630 10632 10633 10635 10637 10639 10641 10643 10646 10648 10651 10653 10654 10656 10659 10661 10663 10666 10668 10670 10672 10674 10677 10681 10683 10683 10685 10688 10688 10686 10688 10690 10691 10692
10582 10583 10583 10584 10585 10587 10589 10590 10591 10592 10593 10593 10594 10595 10597 10598 10600 10601 10603 10605 10608 10610 10611 10612 10613 10614 10615 10616 10618 10621 10623 10625 10627 10629 10631 10634 10636 10638 10641 10643 10645 10647 10649 10652 10654 10656 10659 10661 10663 10665 10668 10670 10673 10677 10678 10680 10682 10681 10681 10684 10686 10686 10687
10574 10576 10577 10577 10579 10581 10582 10583 10583 10584 10585 10586 10586 10588 10589 10591 10593 10595 10596 10599 10601 10602 10603 10604 10605 10605 10606 10608 10610 10612 10614 10617 10619 10622 10624 10626 10628 10631 10633 10635 10637 10639 10642 10644 10647 10649 10651 10654 10656 10658 10660 10663 10666 10670 10672 10674 10676 10676 10676 10678 10679 10680 10682
10566 10568 10569 10570 10571 10573 10575 10576 10576 10576 10577 10578 10579 10580 10581 10583 10585 10587 10589 10591 10593 10594 10595 10596 10597 10597 10598 10600 10602 10604 10606 10608 10611 10613 10616 10618 10620 10623 10625 10627 10629 10631 10634 10637 10639 10641 10644 10646 10649 10651 10653 10655 10658 10662 10665 10667 10670 10670 10670 10672 10672 10673 10677
10557 10559 10560 10561 10563 10565 10567 10568 10568 10568 10569 10570 10571 10572 10573 10575 10577 10579 10581 10583 10584 10586 10587 10588 10589 10589 10591 10592 10594 10597 10599 10600 10602 10604 10607 10609 10612 10614 10617 10619 10621 10623 10625 10628 10631 10633 10636 10638 10640 10643 10645 10647 10650 10653 10656 10660 10664 10663 10662 10664 10666 10667 10670
10548 10549 10551 10553 10554 10556 10557 10558 10559 10560 10560 10561 10562 10564 10566 10567 10569 10570 10572 10574 10575 10577 10578 10580 10581 10582 10583 10585 10586 10588 10590 10592 10593 10595 10597 10600 10602 10605 10608 10610 10611 10614 10617 10620 10622 10624 10627 10629 10631 10634 10636 10639 10642 10645 10647 10651 10656 10656 10654 10656 10659 10660 10664
10538 10539 10541 10543 10545 10546 10547 10548 10549 10550 10551 10552 10554 10556 10558 10559 10560 10562 10563 10565 10566 10568 10570 10571 10572 10573 10575 10576 10578 10580 10582 10583 10585 10586 10588 10590 10593 10596 10599 10600 10602 10604 10608 10611 10613 10614 10617 10619 10622 10625 10627 10630 10633 10636 10638 10642 10646 10649 10647 10646 10650 10654 10657
10527 10528 10530 10532 10534 10536 10536 10537 10538 10540 10541 10543 10545 10547 10548 10550 10551 10553 10554 10556 10557 10559 10560 10562 10563 10564 10566 10567 10569 10571 10572 10574 10576 10577 10578 10580 10583 10586 10589 10591 10592 10595 10599 10603 10603 10605 10607 10609 10612 10616 10618 10620 10623 10626 10628 10632 10637 10640 10640 10639 10642 10646 10649
10515 10517 10519 10521 10523 10524 10525 10526 10527 10529 10531 10533 10535 10537 10538 10540 10541 10543 10544 10546 10547 10549 10550 10552 10553 10555 10556 10558 10559 10561 10563 10565 10567 10568 10569 10571 10573 10576 10579 10580 10582 10584 10589 10593 10594 10595 10597 10600 10603 10606 10608 10610 10613 10616 10618 10622 10627 10631 10632 10633 10635 10638 10641
10503 10505 10507 10509 10511 10512 10513 10514 10516 10518 10520 10522 10524 10526 10528 10530 10531 10532 10533 10535 10536 10538 10539 10541 10543 10545 10546 10548 10550 10551 10553 10555 10557 10559 10560 10561 10563 10566 10569 10571 10571 10574 10578 10582 10584 10585 10587 10590 10592 10596 10598 10599 10602 10605 10608 10612 10617 10620 10624 10626 10628 10630 10633
10491 10493 10495 10497 10498 10499 10501 10503 10506 10508 10510 10511 10513 10515 10517 10519 10520 10521 10522 10523 10525 10526 10528 10530 10532 10534 10536 10538 10540 10542 10544 10545 10547 10549 10550 10551 10553 10556 10559 10561 10562 10564 10568 10571 10572 10574 10577 10580 10582 10585 10587 10588 10591 10595 10598 10601 10605 10609 10614 10618 10619 10622 10625
10478 10480 10482 10484 10486 10487 10489 10492 10495 10497 10499 10501 10503 10505 10506 10508 10509 10510 10511 10512 10513 10515 10517 10519 10521 10523 10525 10527 10530 10532 10534 10536 10537 10539 10540 10541 10543 10545 10548 10550 10552 10553 10557 10560 10562 10563 10565 10569 10572 10574 10576 10577 10579 10584 10588 10591 10594 10599 10604 10608 10611 10613 10616
10464 10466 10468 10471 10473 10475 10478 10481 10484 10486 10487 10489 10492 10494 10495 10497 10498 10498 10499 10501 10502 10504 10507 10509 10511 10512 10514 10516 10519 10522 10524 10525 10527 10528 10530 10531 10532 10534 10536 10539 10541 10542 10545 10548 10551 10552 10554 10556 10560 10563 10566 10567 10569 10571 10576 10581 10584 10589 10593 10597 10601 10604 10606
10450 10452 10455 10458 10461 10463 10466 10469 10472 10474 10475 10478 10480 10483 10485 10486 10487 10488 10488 10490 10492 10494 10496 10498 10499 10500 10503 10505 10508 10511 10513 10514 10516 10517 10518 10519 10520 10522 10525 10527 10529 10531 10533 10536 10538 10541 10543 10544 10548 10551 10553 10556 10559 10561 10564 10568 10573 10578 10582 10585 10589 10592 10596
10433 10437 10443 10447 10449 10452 10454 10457 10459 10461 10464 10466 10469 10472 10473 10474 10475 10476 10477 10479 10481 10483 10485 10486 10487 10488 10491 10494 10497 10499 10501 10503 10504 10506 10507 10508 10509 10510 10512 10514 10517 10518 10520 10523 10526 10528 10531 10533 10536 10539 10541 10544 10548 10551 10553 10556 10560 10565 10570 10574 10578 10580 10585
10418 10424 10430 10435 10438 10440 10442 10445 10447 10450 10452 10455 10458 10460 10461 10462 10464 10464 10465 10467 10470 10472 10473 10474 10475 10476 10479 10482 10485 10487 10489 10490 10492 10493 10495 10496 10497 10498 10500 10502 10504 10506 10507 10510 10512 10515 10518 10521 10524 10528 10530 10531 10535 10540 10544 10546 10548 10552 10557 10562 10566 10568 10574
10405 10411 10417 10422 10425 10428 10430 10432 10435 10438 10442 10444 10446 10447 10449 10450 10451 10451 10453 10456 10458 10459 10460 10461 10462 10464 10466 10469 10472 10474 10477 10478 10479 10481 10482 10484 10485 10486 10488 10490 10491 10493 10494 10496 10498 10502 10505 10508 10511 10515 10519 10521 10523 10528 10532 10536 10538 10539 10544 10550 10554 10557 10562
10394 10399 10405 10407 10410 10415 10418 10420 10423 10427 10431 10433 10434 10435 10436 10437 10438 10439 10441 10443 10444 10445 10446 10447 10449 10451 10453 10455 10458 10461 10464 10466 10467 10469 10470 10472 10473 10474 10476 10477 10479 10481 10481 10482 10485 10488 10491 10495 10498 10502 10507 10510 10512 10515 10519 10524 10527 10529 10531 10537 10543 10547 10549
10387 10389 10392 10394 10397 10400 10404 10408 10412 10416 10419 10420 10422 10423 10423 10424 10425 10426 10428 10430 10431 10431 10432 10434 10435 10437 10439 10441 10443 10447 10451 10453 10455 10456 10458 10459 10461 10462 10463 10465 10467 10468 10468 10469 10471 10474 10477 10481 10485 10489 10494 10498 10501 10504 10507 10512 10516 10518 10520 10524 10531 10536 10536
10381 10378 10378 10379 10382 10385 10389 10394 10398 10402 10405 10407 10409 10410 10410 10412 10413 10414 10415 10416 10417 10418 10419 10420 10421 10422 10424 10426 10429 10433 10436 10439 10442 10443 10445 10446 10448 10449 10450 10451 10453 10455 10455 10456 10458 10460 10464 10467 10471 10476 10481 10485 10489 10492 10495 10499 10502 10505 10509 10513 10519 10524 10524
10368 10366 10366 10367 10369 10372 10376 10380 10383 10385 10389 10394 10397 10398 10400 10401 10402 10402 10402 10403 10404 10405 10405 10405 10407 10408 10410 10412 10415 10417 10420 10423 10426 10428 10430 10431 10433 10435 10436 10437 10439 10441 10443 10444 10444 10446 10449 10453 10458 10463 10468 10473 10477 10480 10484 10487 10488 10492 10497 10502 10507 10511 10512
10353 10355 10357 10358 10359 10362 10365 10367 10369 10370 10373 10379 10385 10388 10390 10391 10390 10389 10389 10389 10391 10392 10391 10391 10392 10393 10395 10396 10399 10401 10403 10406 10410 10412 10414 10415 10417 10419 10420 10422 10425 10427 10429 10430 10430 10432 10435 10439 10445 10450 10455 10460 10464 10469 10473 10473 10474 10479 10485 10489 10494 10499 10502
10343 10347 10350 10351 10352 10353 10355 10356 10356 10357 10360 10366 10372 10376 10377 10378 10378 10376 10375 10376 10378 10378 10377 10376 10376 10378 10379 10380 10382 10384 10387 10390 10394 10396 10397 10399 10400 10402 10405 10407 10409 10413 10415 10416 10416 10418 10420 10425 10432 10437 10442 10447 10451 10457 10460 10458 10460 10466 10471 10475 10481 10487 10492
10335 10339 10343 10345 10345 10345 10345 10345 10346 10348 10351 10356 10360 10363 10365 10366 10365 10364 10363 10364 10364 10364 10364 10363 10362 10363 10364 10365 10366 10369 10372 10376 10379 10380 10381 10382 10384 10386 10389 10392 10394 10397 10400 10402 10403 10405 10407 10412 10418 10424 10428 10433 10439 10444 10444 10441 10446 10453 10457 10463 10471 10476 10481
10325 10330 10334 10335 10335 10335 10335 10336 10338 10341 10344 10348 10351 10354 10355 10354 10353 10352 10352 10352 10352 10351 10351 10351 10350 10350 10350 10351 10353 10356 10359 10361 10363 10364 10365 10367 10369 10371 10373 10376 10378 10380 10383 10387 10390 10393 10396 10399 10404 10409 10414 10419 10426 10428 10426 10427 10434 10440 10445 10453 10460 10465 10469
10318 10323 10326 10327 10328 10328 10329 10331 10333 10335 10338 10340 10343 10344 10344 10343 10343 10342 10342 10341 10340 10339 10340 10341 10340 10338 10339 10340 10341 10343 10345 10347 10348 10350 10352 10353 10354 10356 10357 10359 10362 10365 10369 10375 10379 10382 10384 10386 10389 10393 10399 10404 10409 10410 10411 10416 10422 10427 10433 10441 10448 10453 10458
10312 10318 10321 10323 10323 10323 10323 10325 10326 10328 10329 10331 10333 10334 10334 10334 10334 10333 10332 10330 10330 10329 10329 10329 10329 10328 10328 10328 10329 10330 10332 10334 10335 10338 10340 10340 10340 10341 10343 10345 10348 10352 10356 10361 10365 10368 10370 10372 10374 10379 10384 10387 10391 10394 10398 10404 10409 10413 10421 10429 10436 10442 10446
10305 10310 10313 10315 10315 10315 10315 10316 10317 10318 10320 10322 10324 10324 10324 10325 10326 10325 10322 10320 10319 10319 10318 10318 10319 10319 10318 10318 10318 10319 10321 10323 10324 10325 10328 10329 10328 10329 10331 10333 10336 10339 10342 10347 10351 10354 10357 10360 10363 10366 10369 10371 10375 10379 10384 10390 10395 10400 10407 10415 10424 10430 10433
10296 10300 10303 10305 10306 10306 10306 10307 10308 10310 10312 10313 10314 10315 10316 10317 10317 10315 10313 10311 10309 10308 10308 10309 10309 10309 10309 10309 10309 10309 10311 10312 10313 10315 10318 10319 10319 10319 10320 10321 10324 10327 10330 10334 10338 10341 10344 10347 10349 10351 10353 10356 10361 10365 10371 10377 10382 10388 10395 10403 10411 10416 10418